[[{"header":{"parameterUnit":"m.s-1","parameterCategory":1,"la1":30.2991,"la2":30.254,"lo1":-89.0895,"lo2":-89.0444,"dy":0.0017,"dx":0.0017,"nx":28,"ny":28,"refTime":"2023-08-05T09:00:00:Z","depth":0,"parameterNumber":2,"parameterNumberName":"U-component_of_WINDS"},"data":[0,0,0,0,0,0,0,0,0,0,0,0,0,0,0,0,0,0,0,0,0,0,0,0,0,0,0,0,0,0,0,0,0,0,0,0,0,0,0,0,0,0,0,0,0,0,0,0,0,0,0,0,0,0,0,0,0,0,1.7455,1.7458,0,1.7698,1.7701,1.7704,1.7766,1.7764,1.7763,1.7761,1.8013,1.8021,1.8029,0,0,0,0,0,0,0,0,0,0,0,0,0,1.7049,1.7056,1.7455,1.7458,1.7461,1.7698,1.7701,1.7704,1.7766,1.7764,1.7763,1.7761,1.801,1.802,1.803,0,0,0,0,0,0,0,0,0,0,0,0,0,1.7252,1.7058,1.7455,1.752,1.7529,1.7697,1.7701,1.7705,1.7767,1.7764,1.7762,1.776,1.8007,1.8019,1.8031,1.8152,0,0,1.8068,1.8074,0,0,0,0,0,0,0,0,1.724,1.7266,1.7508,1.7516,1.7526,1.7699,1.765,1.7855,1.7767,1.7676,1.7761,1.7759,1.7911,1.7931,1.7981,1.8164,1.8175,1.8069,1.8077,1.8082,1.8085,0,0,0,0,0,0,0,1.7226,1.7256,1.7551,1.7511,1.7522,1.7539,1.7565,1.7689,1.7804,1.7684,1.7689,1.7717,1.7915,1.7969,1.7988,1.8178,1.8069,1.808,1.8087,1.8092,1.8475,1.8478,0,0,0,0,0,0,1.72,1.7244,1.7544,1.7559,1.7374,1.7548,1.7578,1.7646,1.7802,1.7824,1.7719,1.7719,1.795,1.7973,1.7997,1.8151,1.8082,1.8093,1.81,1.8472,1.8476,1.8479,0,0,0,0,0,0,1.7191,1.7226,1.7534,1.7403,1.7443,1.7558,1.7634,1.7652,1.7706,1.7828,1.7849,1.7753,1.7949,1.798,1.8113,1.816,1.8099,1.811,1.8469,1.8473,1.8477,1.8457,0,0,0,0,0,0,1.7179,1.7222,1.7268,1.7404,1.745,1.7645,1.7637,1.7658,1.7727,1.7729,1.7866,1.7886,1.795,1.8095,1.8125,1.8176,1.8119,1.8465,1.8471,1.8476,1.8454,1.846,1.8466,0,0,0,0,0,1.7164,1.7253,1.727,1.7306,1.751,1.7647,1.7674,1.7744,1.773,1.7778,1.7857,1.7882,1.815,1.8108,1.8143,1.8198,1.8462,1.8469,1.8475,1.8452,1.8459,1.8465,0,0,0,0,0,0,1.7121,1.7272,1.7293,1.7428,1.7524,1.7658,1.772,1.7749,1.7852,1.7851,1.7934,1.7965,1.8093,1.8159,1.811,1.8324,1.8306,1.832,1.8276,1.8285,1.829,1.8272,1.8129,0,0,0,0,0,1.7127,1.7225,1.7352,1.7459,1.7506,1.7605,1.7667,1.7713,1.7817,1.7858,1.7946,1.8047,1.8154,1.8223,1.8328,1.8464,1.8496,1.8519,1.8525,1.8529,1.854,1.8619,1.8631,1.85,1.85,1.85,0,0,1.7141,1.7235,1.7292,1.7453,1.7533,1.7634,1.7639,1.7745,1.7821,1.7875,1.8006,1.8075,1.8193,1.8329,1.8393,1.8387,1.8583,1.8537,1.8539,1.8549,1.8627,1.8639,1.865,1.8504,1.8503,1.8503,0,0,1.7217,1.7298,1.7397,1.7477,1.7599,1.7664,1.7688,1.7818,1.7865,1.7998,1.8041,1.8134,1.8316,1.8399,1.8464,1.8575,1.8603,1.8607,1.8636,1.8713,1.8723,1.8733,1.8774,1.8787,1.8617,1.8617,1.8617,0,1.7219,1.7372,1.7444,1.7549,1.762,1.7672,1.7774,1.7849,1.7998,1.8046,1.8038,1.8269,1.8352,1.8509,1.8536,1.8587,1.8618,1.8592,1.8715,1.8726,1.8736,1.8776,1.8791,1.8617,1.8617,1.8617,1.8617,0,1.737,1.7475,1.7541,1.7684,1.7762,1.7864,1.7954,1.8024,1.8063,1.813,1.8266,1.8368,1.8495,1.8536,1.8575,1.87,1.8693,1.8698,1.8683,1.8747,1.8786,1.8802,1.8617,1.8617,1.8617,1.8617,0,0,1.7425,1.7608,1.7631,1.7697,1.7836,1.792,1.8026,1.815,1.821,1.8311,1.8404,1.8557,1.8565,1.8639,1.8689,1.8755,1.8839,1.8754,1.8758,1.8768,1.8984,1.898,1.8996,1.8858,1.8861,1.8863,1.8975,0,1.752,1.7711,1.778,1.7937,1.8037,1.8089,1.8182,1.8278,1.8343,1.8439,1.8511,1.862,1.862,1.8666,1.8734,1.8814,1.8884,1.8807,1.8946,1.895,1.8916,1.9016,1.9012,1.9112,1.8991,1.8993,1.8995,0,1.7656,1.776,1.7927,1.8055,1.81,1.8182,1.8302,1.8392,1.8503,1.8546,1.863,1.8676,1.8791,1.8767,1.8928,1.8874,1.8935,1.8984,1.8989,1.9006,1.8977,1.9037,1.9145,1.9161,1.902,1.9018,1.9016,0,1.7682,1.7863,1.7987,1.8042,1.8195,1.8251,1.8318,1.8426,1.8497,1.8603,1.865,1.8768,1.8833,1.8924,1.9,1.8976,1.9155,1.9137,1.9196,1.9194,1.9232,1.9228,1.9353,1.9269,1.9269,1.9268,1.9268,0,1.7781,1.7882,1.8001,1.8077,1.8193,1.8272,1.8384,1.8454,1.855,1.8642,1.8694,1.878,1.8875,1.8974,1.9035,1.916,1.9188,1.9228,1.9243,1.9224,1.9219,1.9266,1.9262,1.9272,1.9271,1.9271,1.927,0,1.7829,1.7913,1.8052,1.8185,1.8221,1.83,1.8415,1.8492,1.856,1.8676,1.8708,1.8816,1.8934,1.902,1.9173,1.9214,1.9349,1.9363,1.9311,1.9319,1.9373,1.9368,1.9533,1.956,1.9456,1.9457,1.9458,0,1.7887,1.7966,1.8108,1.8174,1.824,1.8344,1.8417,1.8499,1.8573,1.8706,1.8768,1.889,1.8992,1.918,1.9273,1.9391,1.9409,1.9459,1.9427,1.9406,1.9412,1.9407,1.9416,1.9464,1.9465,1.9465,1.9466,0,1.7983,1.8021,1.8124,1.8242,1.8328,1.8425,1.8522,1.8573,1.8672,1.8753,1.8875,1.8955,1.9112,1.9233,1.9361,1.9431,1.9466,1.9475,1.9495,1.9477,1.9444,1.9465,1.9326,1.9471,1.947,1.947,1.947,1.9469,1.8039,1.8113,1.8225,1.8338,1.842,1.8511,1.8591,1.8669,1.8772,1.8906,1.8948,1.9075,1.9187,1.9361,1.9433,1.9535,1.9532,1.9561,1.9569,1.9575,1.9575,1.9427,1.9558,1.9558,1.9558,1.9558,1.9558,0,1.8139,1.8214,1.8317,1.8453,1.8543,1.8567,1.8677,1.8751,1.8862,1.8962,1.9062,1.9204,1.9323,1.9425,1.9548,1.961,1.963,1.964,1.9637,1.9653,1.9569,1.954,1.9623,1.9623,1.9623,1.9622,1.9622,1.9622,1.8201,1.8327,1.8379,1.8547,1.8622,1.8747,1.8808,1.8892,1.8973,1.9129,1.9227,1.9293,1.9395,1.9527,1.9638,1.9665,1.9709,1.9716,1.9747,1.9666,1.9659,1.9651,1.9625,1.9724,1.9724,1.9823,1.9824,1.9825]},{"header":{"parameterUnit":"m.s-1","parameterCategory":1,"la1":30.2991,"la2":30.254,"lo1":-89.0895,"lo2":-89.0444,"dy":0.0017,"dx":0.0017,"nx":28,"ny":28,"refTime":"2023-08-05T09:00:00:Z","depth":0,"parameterNumber":3,"parameterNumberName":"V-component_of_WINDS"},"data":[0,0,0,0,0,0,0,0,0,0,0,0,0,0,0,0,0,0,0,0,0,0,0,0,0,0,0,0,0,0,0,0,0,0,0,0,0,0,0,0,0,0,0,0,0,0,0,0,0,0,0,0,0,0,0,0,0,0,5.6314,5.6316,0,5.6421,5.6422,5.6423,5.6393,5.6391,5.6389,5.6387,5.6485,5.649,5.6494,0,0,0,0,0,0,0,0,0,0,0,0,0,5.6075,5.608,5.6314,5.6316,5.6317,5.642,5.6422,5.6423,5.6394,5.6391,5.6389,5.6386,5.6484,5.6489,5.6495,0,0,0,0,0,0,0,0,0,0,0,0,0,5.618,5.6082,5.6314,5.6315,5.6316,5.642,5.6422,5.6424,5.6394,5.6391,5.6388,5.6385,5.6482,5.6489,5.6496,5.6602,0,0,5.6517,5.652,0,0,0,0,0,0,0,0,5.6174,5.6189,5.6314,5.6315,5.6317,5.6391,5.6374,5.6483,5.6395,5.6364,5.6387,5.6383,5.6456,5.6465,5.6491,5.6606,5.6611,5.6517,5.6521,5.6524,5.6526,0,0,0,0,0,0,0,5.6167,5.6184,5.6356,5.6315,5.6317,5.6307,5.6318,5.6394,5.6426,5.6367,5.6365,5.6378,5.6456,5.6485,5.6493,5.6612,5.6517,5.6523,5.6527,5.653,5.682,5.6823,0,0,0,0,0,0,5.616,5.6178,5.6353,5.6359,5.6236,5.6314,5.6326,5.637,5.6425,5.6431,5.6381,5.6377,5.6474,5.6485,5.6497,5.6625,5.6524,5.6531,5.6535,5.6816,5.682,5.6824,0,0,0,0,0,0,5.6155,5.6176,5.6348,5.6268,5.629,5.6321,5.637,5.6374,5.6403,5.6436,5.6441,5.6405,5.6472,5.6487,5.6577,5.6628,5.6534,5.654,5.6812,5.6817,5.6822,5.6884,0,0,0,0,0,0,5.6148,5.6174,5.6217,5.627,5.6294,5.643,5.6374,5.6378,5.6416,5.6411,5.646,5.6465,5.6471,5.6567,5.6584,5.6636,5.6546,5.6807,5.6814,5.6821,5.6877,5.689,5.6902,0,0,0,0,0,5.614,5.6228,5.622,5.6241,5.6349,5.6433,5.6446,5.6454,5.642,5.6462,5.6484,5.6464,5.662,5.6576,5.6595,5.665,5.6804,5.6812,5.682,5.6871,5.6888,5.6901,0,0,0,0,0,0,5.6176,5.6235,5.6226,5.6335,5.638,5.6428,5.6481,5.6471,5.6524,5.6517,5.6521,5.6532,5.6624,5.6646,5.6596,5.6756,5.6707,5.6719,5.6739,5.6755,5.6767,5.676,5.6551,0,0,0,0,0,5.6198,5.6265,5.631,5.6401,5.6425,5.6449,5.6486,5.6489,5.6534,5.6552,5.658,5.6621,5.668,5.6718,5.6774,5.688,5.6889,5.6927,5.6939,5.6949,5.696,5.7017,5.7035,5.6851,5.6851,5.685,0,0,5.6241,5.6281,5.6322,5.641,5.6445,5.6511,5.6465,5.6537,5.6585,5.6561,5.6649,5.6671,5.6718,5.6817,5.6861,5.6837,5.7013,5.6959,5.6967,5.6972,5.7027,5.7045,5.706,5.6856,5.6855,5.6854,0,0,5.6355,5.6392,5.6473,5.651,5.6566,5.6582,5.6601,5.6652,5.6667,5.6756,5.6739,5.6794,5.6895,5.693,5.696,5.7088,5.7071,5.7105,5.717,5.7226,5.7241,5.7254,5.7299,5.7316,5.7116,5.7116,5.7116,0,5.6401,5.6504,5.6514,5.6589,5.6627,5.6612,5.6693,5.6726,5.6795,5.6821,5.6794,5.6921,5.6951,5.7058,5.7089,5.7114,5.7135,5.71,5.7238,5.7251,5.7263,5.7307,5.7324,5.712,5.7119,5.7119,5.7119,0,5.6558,5.663,5.6687,5.676,5.6804,5.688,5.69,5.6943,5.6941,5.6959,5.7049,5.7085,5.7148,5.7173,5.7171,5.728,5.7264,5.7238,5.7188,5.7285,5.7326,5.7343,5.7125,5.7124,5.7123,5.7122,0,0,5.6698,5.6777,5.6798,5.6831,5.6891,5.6945,5.7019,5.7085,5.7122,5.7169,5.7231,5.7317,5.7294,5.7329,5.733,5.7379,5.7479,5.7347,5.7348,5.7371,5.7601,5.7621,5.7641,5.7468,5.7471,5.7474,5.7598,0,5.6817,5.6955,5.6967,5.7088,5.7154,5.714,5.7205,5.7248,5.7266,5.7322,5.734,5.7402,5.7367,5.7388,5.7436,5.7457,5.7525,5.7448,5.7524,5.7526,5.7514,5.7662,5.7684,5.7799,5.7614,5.7616,5.7618,0,5.6975,5.7033,5.7163,5.7216,5.7243,5.7302,5.7364,5.7418,5.7464,5.7474,5.7514,5.7509,5.7583,5.753,5.7632,5.7579,5.761,5.7625,5.7629,5.7637,5.7579,5.7674,5.7836,5.7853,5.7644,5.7642,5.764,0,5.7066,5.7175,5.7267,5.7295,5.7358,5.74,5.7428,5.7472,5.7511,5.7563,5.7588,5.7646,5.7678,5.7722,5.7731,5.7693,5.7833,5.7781,5.7842,5.7842,5.7872,5.787,5.8041,5.7891,5.7891,5.7891,5.789,0,5.7199,5.7278,5.7309,5.7366,5.7454,5.7465,5.7551,5.7575,5.7615,5.7674,5.7663,5.7718,5.7727,5.7783,5.779,5.7873,5.7887,5.7895,5.7896,5.7897,5.7896,5.7918,5.791,5.7895,5.7894,5.7893,5.7893,0,5.7314,5.7338,5.7438,5.7491,5.7506,5.7569,5.7612,5.7665,5.7683,5.7757,5.7775,5.7802,5.7867,5.7881,5.7957,5.7962,5.8061,5.8053,5.8047,5.8046,5.8106,5.81,5.8298,5.8324,5.8156,5.8158,5.8159,0,5.7398,5.7461,5.7521,5.7562,5.7593,5.7658,5.7699,5.7711,5.7754,5.7812,5.7858,5.7923,5.7976,5.808,5.8104,5.8162,5.8156,5.8221,5.8164,5.8164,5.8158,5.8155,5.8161,5.8232,5.8234,5.8235,5.8237,0,5.7545,5.7554,5.7616,5.7682,5.7733,5.7784,5.7832,5.7865,5.7884,5.7931,5.8,5.8042,5.8121,5.8185,5.8244,5.8268,5.8255,5.8254,5.8272,5.8273,5.8267,5.8272,5.8077,5.825,5.8248,5.8248,5.8247,5.8246,5.7648,5.7703,5.7756,5.7824,5.7863,5.791,5.7963,5.7989,5.8048,5.8117,5.8119,5.8194,5.8238,5.8316,5.8344,5.84,5.8379,5.8404,5.841,5.8417,5.8423,5.8258,5.841,5.841,5.841,5.8409,5.8409,0,5.7795,5.7829,5.7892,5.7963,5.8017,5.8004,5.8057,5.8102,5.817,5.8214,5.8267,5.8346,5.8408,5.8438,5.8499,5.8538,5.8534,5.8554,5.8551,5.8557,5.8437,5.8417,5.8557,5.8557,5.8557,5.8557,5.8557,5.8556,5.7878,5.7971,5.7986,5.8097,5.8129,5.8206,5.8238,5.8279,5.8315,5.8405,5.8459,5.8479,5.8517,5.858,5.8636,5.8643,5.8666,5.8689,5.8693,5.858,5.8565,5.8551,5.8532,5.8694,5.8694,5.8808,5.8809,5.881]}]]